[Iaude] MPEC U102: 2013 SV100 [a=42.90,e=0.04,i=2.1,H=7.7]

mpec at mpcdb1.cfa.harvard.edu mpec at mpcdb1.cfa.harvard.edu
Thu Oct 19 18:35:16 EDT 2017


M.P.E.C. 2017-U102                               Issued 2017 Oct. 19, 22:32 UT
 
     The Minor Planet Electronic Circulars contain information on unusual
         minor planets and routine data on comets.  They are published
    on behalf of Division F of the International Astronomical Union by the
          Minor Planet Center, Smithsonian Astrophysical Observatory,
                          Cambridge, MA 02138, U.S.A.

             Prepared using the Tamkin Foundation Computer Network

                              MPC at CFA.HARVARD.EDU
            URL http://www.minorplanetcenter.net/    ISSN 1523-6714


                                  2013 SV100
 
Observations:
     K13SA0V @C2013 08 05.48926 00 51 30.090+03 44 32.40         23.9 rqEU102568
     K13SA0V @C2013 08 05.53771 00 51 30.012+03 44 31.90         23.8 rqEU102568
     K13SA0V @C2013 08 08.46817 00 51 24.685+03 43 51.25         23.7 rqEU102568
     K13SA0V @C2013 08 08.50699 00 51 24.608+03 43 50.51         23.9 rqEU102568
     K13SA0V @C2013 08 31.55306 00 50 22.399+03 36 29.65         23.9 rqEU102568
     K13SA0V @C2013 09 01.43879 00 50 19.395+03 36 08.94         24.1 rqEU102568
     K13SA0V @C2013 09 01.47776 00 50 19.258+03 36 08.08         24.4 rqEU102568
     K13SA0V @C2013 09 05.41829 00 50 05.333+03 34 33.53         24.2 rqEU102568
     K13SA0V @C2013 09 05.45710 00 50 05.171+03 34 32.55         24.3 rqEU102568
     K13SA0V*@C2013 09 29.34928 00 48 28.504+03 23 55.98         23.8 rqEU102568
     K13SA0V @C2013 09 29.38812 00 48 28.344+03 23 54.98         24.0 rqEU102568
     K13SA0V @C2013 09 29.43193 00 48 28.141+03 23 53.78         24.0 rqEU102568
     K13SA0V @C2013 10 02.42297 00 48 15.159+03 22 30.17         24.0 rqEU102568
     K13SA0V @C2013 10 04.51453 00 48 06.035+03 21 31.78         23.8 rqEU102568
     K13SA0V @C2013 10 04.52297 00 48 06.003+03 21 31.34         23.9 rqEU102568
     K13SA0V @C2013 10 04.52783 00 48 05.991+03 21 31.44         24.1 rqEU102568
     K13SA0V @C2013 10 09.48085 00 47 44.377+03 19 13.59         23.8 rqEU102568
     K13SA0V @C2013 11 27.27517 00 44 48.380+03 01 23.20         24.0 rqEU102568
     K13SA0V @C2013 11 27.32692 00 44 48.252+03 01 22.55         23.9 rqEU102568
     K13SA0V @C2013 12 05.33035 00 44 32.270+02 59 56.38         24.4 rqEU102568
     K13SA0V @C2013 12 06.19916 00 44 30.854+02 59 49.00         24.0 rqEU102568
     K13SA0V @C2014 06 25.58886 00 56 10.777+04 13 56.71         24.3 rqEU102568
     K13SA0V @C2014 06 26.58771 00 56 12.488+04 14 04.59         23.9 rqEU102568
     K13SA0V @C2014 07 23.56365 00 56 27.771+04 14 25.29         23.8 rqEU102568
     K13SA0V @C2014 07 27.54407 00 56 24.902+04 13 56.62         23.9 rqEU102568
     K13SA0V @C2014 08 22.61852 00 55 36.091+04 07 47.59         24.1 rqEU102568
     K13SA0V @C2014 08 23.62686 00 55 33.225+04 07 27.39         24.2 rqEU102568
     K13SA0V @C2014 08 28.45428 00 55 18.755+04 05 46.85         23.8 rqEU102568
     K13SA0V @C2014 10 23.29554 00 51 32.718+03 41 22.60         24.0 rqEU102568
     K13SA0V @C2014 10 27.26220 00 51 16.385+03 39 42.09         24.2 rqEU102568
     K13SA0V @C2014 11 24.25164 00 49 40.341+03 30 10.38         24.1 rqEU102568
     K13SA0V @C2014 11 25.24784 00 49 37.755+03 29 55.95         24.1 rqEU102568
     K13SA0V @C2014 12 17.32730 00 48 59.868+03 26 40.98         24.9 rqEU102568
     K13SA0V @C2015 01 18.23045 00 49 18.682+03 29 52.23         24.3 rqEU102568
     K13SA0V @C2017 07 24.58173 01 10 30.980+05 36 11.28         24.0 wqEU102568
 
Observer details:
568 Mauna Kea.  Observers M. T. Bannister, J. J. Kavelaars, B. J. Gladman,
    J.-M. Petit, T. Burdullis.  Measurers S. D. J. Gwyn, Y.-T. Chen,
    M. Alexandersen, M. Schwamb.  3.6-m Canada-France-Hawaii Telescope + CCD.
 
Orbital elements:
2013 SV100
Epoch 2017 Sept. 4.0 TT = JDT 2458000.5                 MPC
M 112.23413              (2000.0)            P               Q
n   0.00350804     Peri.  119.39719     -0.15200226     +0.98812033
a  42.8969849      Node   141.83883     -0.91905735     -0.13286879
e   0.0362701      Incl.    2.10184     -0.36363292     -0.07722755
P 281              H    7.7           G   0.15           U   3
Residuals in seconds of arc
130805 568  0.0   0.1-    131002 568  0.0   0.1+    140727 568  0.1-  0.1-
130805 568  0.2+  0.0     131004 568  0.0   0.1+    140822 568  0.1+  0.3+
130808 568  0.1-  0.1+    131004 568  0.1+  0.1-    140823 568  0.1-  0.0
130808 568  0.1-  0.1-    131004 568  0.2+  0.1+    140828 568  0.0   0.1+
130831 568  0.2-  0.0     131009 568  0.0   0.0     141023 568  0.1-  0.2-
130901 568  0.0   0.0     131127 568  0.0   0.1-    141027 568  0.0   0.0
130901 568  0.0   0.0     131127 568  0.0   0.0     141124 568  0.0   0.1-
130905 568  0.1+  0.1-    131205 568  0.1-  0.0     141125 568  0.0   0.1+
130905 568  0.1-  0.1-    131206 568  0.1-  0.0     141217 568  0.0   0.0
130929 568  0.0   0.0     140625 568  0.0   0.0     150118 568  0.1+  0.1+
130929 568  0.2+  0.1+    140626 568  0.1-  0.1-    170724 568  0.0   0.0
130929 568  0.0   0.1+    140723 568  0.2+  0.1-

Ephemeris:
2013 SV100               a,e,i = 42.90, 0.04, 2                  q = 41.341
Date    TT    R. A. (2000) Decl.     Delta      r     Elong.  Phase     V
2017 09 19    01 08 15.8 +05 20 17  42.6001 43.5343   158.2     0.5    24.1
...
2017 10 04    01 07 12.8 +05 13 36  42.5426 43.5356   173.0     0.2    24.1
...
2017 10 12    01 06 37.8 +05 09 58  42.5390 43.5363   177.8     0.1    24.1
...
2017 10 18    01 06 11.6 +05 07 16  42.5489 43.5368   172.4     0.2    24.1
2017 10 19    01 06 07.2 +05 06 49  42.5516 43.5369   171.5     0.2    24.1
2017 10 20    01 06 02.9 +05 06 22  42.5546 43.5370   170.5     0.2    24.1
...
2017 10 26    01 05 37.2 +05 03 46  42.5790 43.5375   164.4     0.4    24.1
...
2017 11 03    01 05 04.4 +05 00 30  42.6278 43.5382   156.3     0.5    24.1
...
2017 11 18    01 04 09.8 +04 55 10  42.7663 43.5395   141.0     0.8    24.2

A. U. Tomatic                (C) Copyright 2017 MPC           M.P.E.C. 2017-U102



More information about the Iaude mailing list